Theta_e
289 289 289 289 290 290 290 290 290 291 291 291 290 290 290 290 290 290 290 291 292 293 293 295 297 299 301 304 306 308 313 318 323 326 327 327 328 328 328 328 328 328
288 288 288 288 289 289 289 289 290 290 290 289 289 289 289 289 289 289 290 290 291 291 291 292 293 294 296 299 301 304 307 310 314 319 323 326 327 328 328 328 328 328
288 288 288 288 288 288 288 288 289 289 289 289 288 288 288 288 288 288 288 289 290 290 290 291 291 291 292 294 296 299 302 304 306 309 313 318 323 327 327 327 327 327
287 287 287 287 287 287 287 288 288 288 288 288 288 288 288 287 287 287 287 287 288 289 289 290 290 290 291 292 293 295 296 299 301 304 306 310 315 320 325 327 327 326
286 287 287 287 287 287 287 287 287 288 288 288 287 287 287 286 286 287 286 287 287 287 288 288 289 289 290 291 293 294 294 295 298 301 304 306 309 312 317 322 325 327
285 286 286 286 286 286 286 286 286 287 287 287 287 287 286 286 286 286 286 286 286 287 287 287 287 288 289 290 291 292 293 295 297 300 302 302 303 305 308 313 319 324
285 285 285 285 285 286 286 286 286 286 287 287 287 287 286 286 286 286 286 286 286 286 286 287 287 287 288 288 289 290 291 294 297 299 298 297 297 299 302 304 308 313
285 285 285 285 285 285 285 285 285 285 286 286 286 286 286 286 285 286 286 286 286 286 286 286 286 286 287 287 288 289 290 293 294 294 294 294 295 296 298 299 301 304
285 285 285 285 285 285 285 285 285 285 285 286 286 286 286 285 285 285 285 285 285 286 286 286 286 286 286 287 287 288 289 290 291 290 291 292 293 295 295 297 298 300
285 285 285 285 285 285 285 285 284 284 284 285 285 286 285 285 285 285 285 284 285 285 285 285 285 286 286 286 286 287 288 288 288 288 290 291 291 292 293 294 296 298
285 285 285 285 285 285 285 285 284 284 284 284 285 285 285 285 284 284 284 284 284 284 284 285 285 285 285 286 286 287 287 287 287 288 288 289 289 290 291 292 294 295
285 285 285 285 285 285 285 285 284 284 284 284 284 285 284 284 284 284 284 284 284 284 284 284 284 285 285 285 286 286 286 286 287 287 287 288 288 288 289 290 291 293
285 285 285 285 285 285 285 284 284 284 284 284 284 284 284 284 284 284 284 284 284 283 283 283 283 284 284 285 285 285 285 286 286 286 287 287 287 287 288 289 289 291
285 285 285 285 285 285 285 284 284 284 284 284 284 284 284 284 284 283 284 283 283 283 283 283 283 283 284 284 284 284 285 285 285 286 286 286 286 287 287 288 288 289
285 285 285 285 285 284 284 284 284 284 284 284 284 284 284 284 284 284 284 283 283 283 283 283 283 283 283 283 283 284 284 285 285 285 285 285 286 286 287 287 287 288
285 285 285 285 285 284 284 284 284 284 284 284 283 283 283 283 283 283 283 283 283 283 283 282 282 282 283 283 283 283 284 284 284 284 285 285 286 286 286 286 287 287
285 285 285 285 285 285 284 284 284 284 284 283 283 283 283 283 283 283 283 283 283 283 283 282 282 282 282 282 282 282 283 283 284 284 284 285 285 285 286 286 286 286
285 285 285 285 285 285 285 285 284 284 284 284 284 283 283 283 283 283 283 283 283 282 282 282 282 282 282 282 282 282 282 283 283 283 284 284 284 285 285 286 286 286
285 285 285 285 285 285 285 285 285 284 284 284 284 284 283 283 283 283 282 282 282 282 282 282 282 282 281 281 282 282 282 282 283 283 283 284 284 284 284 285 286 286
285 285 285 284 284 284 284 284 284 284 284 284 284 284 283 283 283 282 282 282 282 282 282 281 281 281 281 281 281 281 282 282 283 283 283 283 283 283 284 284 285 286
284 284 284 284 284 284 284 284 284 284 284 284 283 283 283 283 282 282 282 282 282 282 281 281 281 281 281 281 281 281 281 282 282 282 282 283 282 283 283 284 285 285
284 284 284 284 284 284 284 284 284 284 283 283 283 282 282 282 282 282 282 281 281 281 281 280 280 280 280 281 281 281 281 281 282 282 282 282 282 282 283 283 284 285
284 284 284 284 284 284 283 283 283 283 283 282 282 282 281 281 281 281 281 281 281 281 280 280 280 280 280 280 280 280 280 281 281 281 282 282 282 282 283 283 284 285
284 284 284 283 283 283 283 283 283 282 282 282 281 281 281 281 281 280 280 280 280 280 280 280 279 279 279 279 279 279 280 281 281 281 281 281 282 282 282 283 284 284
284 284 283 283 283 283 282 282 282 281 281 281 280 280 280 280 280 280 280 279 279 279 279 279 279 279 279 279 279 279 280 280 280 281 281 281 282 282 282 283 283 284
283 283 283 283 282 282 281 281 280 280 280 279 279 279 279 279 279 279 279 279 278 278 278 278 278 278 278 278 278 279 279 280 280 281 281 281 281 282 282 283 283 284
Wind_Speed
31 31 30 30 30 30 30 30 31 31 31 31 32 33 34 34 34 35 35 36 36 37 37 36 36 36 36 33 32 31 27 22 22 26 30 32 35 36 37 38 37 35
31 31 31 30 30 29 29 29 29 29 29 30 32 32 33 35 36 35 35 35 35 36 37 38 38 38 37 37 36 34 31 30 28 25 23 25 29 31 33 35 36 37
29 30 30 30 29 29 29 29 29 29 29 30 32 32 33 35 36 36 36 36 35 35 35 36 38 39 39 38 38 36 34 33 31 31 30 28 26 28 31 32 34 35
28 28 28 28 28 28 28 29 29 29 30 31 32 32 33 35 36 37 38 38 37 36 36 36 36 38 39 38 38 37 36 35 33 33 32 31 29 28 29 29 29 30
27 26 26 27 27 27 28 29 29 29 29 30 32 33 34 36 37 38 38 38 39 38 38 38 38 38 37 37 37 37 37 37 36 35 34 33 32 30 30 29 30 31
27 26 26 27 26 26 27 28 29 29 29 30 31 32 34 35 36 37 37 38 38 38 39 39 40 39 38 37 36 36 36 37 36 35 35 34 34 33 32 32 31 31
26 27 26 27 27 27 27 28 29 29 29 30 31 32 34 35 35 36 36 37 37 37 38 39 39 40 39 38 38 37 36 35 35 35 35 36 37 36 35 34 34 33
26 26 27 27 28 28 28 29 30 30 29 30 31 32 33 34 35 35 35 36 36 36 37 37 38 38 39 38 38 37 36 34 34 35 36 38 38 37 36 37 37 37
25 26 27 27 27 28 29 30 31 31 31 31 31 31 33 34 34 35 35 36 36 35 36 36 36 37 37 37 36 35 34 34 34 34 34 36 37 36 36 36 37 37
25 25 26 28 28 27 28 29 30 31 31 32 32 32 33 34 34 34 35 36 36 36 36 36 36 36 36 36 35 34 33 34 35 35 34 33 34 35 35 35 34 35
25 26 26 28 28 28 28 28 29 30 31 32 32 33 34 35 35 35 34 35 36 36 36 36 36 35 35 36 35 33 33 34 35 35 35 34 33 34 34 34 33 34
26 26 26 27 28 28 29 29 29 29 30 31 31 32 34 35 36 35 34 34 35 35 35 36 36 35 35 34 34 34 35 36 36 36 36 36 36 35 33 33 33 34
26 26 26 27 28 28 29 29 30 30 31 31 30 30 32 34 36 36 36 35 35 35 35 35 36 36 35 34 33 35 37 37 37 37 37 37 37 37 35 34 35 34
27 27 27 27 28 29 29 29 29 30 32 33 33 31 30 31 33 35 36 37 36 36 35 35 35 35 35 34 34 36 37 37 37 37 38 38 39 39 38 36 36 35
26 26 27 27 28 30 31 31 31 31 33 34 34 33 32 32 32 32 34 36 38 38 36 35 35 34 34 34 36 37 37 37 37 37 37 38 38 39 40 39 38 37
23 24 25 25 26 28 28 30 31 32 34 35 35 35 34 35 34 32 32 34 36 38 38 37 36 35 35 36 37 38 38 37 38 38 37 37 37 38 40 40 40 39
23 24 25 25 26 27 27 28 29 30 32 34 35 36 36 35 35 35 34 34 34 35 37 38 39 38 38 39 39 39 39 39 39 39 38 37 36 36 38 40 42 42
24 25 26 26 27 28 28 28 29 29 30 32 34 35 36 36 36 36 36 36 35 35 35 37 39 41 42 41 41 41 41 40 39 39 38 37 37 37 37 39 40 42
25 26 27 28 28 29 29 29 28 29 30 32 33 34 35 35 36 36 37 37 37 37 37 38 39 41 43 43 43 43 42 40 40 39 39 39 38 38 38 38 38 39
26 27 28 29 30 30 30 29 29 30 31 31 32 33 33 34 35 36 37 37 37 37 38 40 40 41 43 44 45 45 43 40 39 40 40 40 40 39 38 38 38 37
26 28 29 30 31 31 31 30 30 31 31 30 31 31 32 33 34 36 37 37 38 37 38 40 42 43 43 43 44 46 46 43 40 40 41 41 41 40 39 39 38 37
27 28 30 31 31 31 31 31 31 31 30 31 31 31 32 33 34 35 36 37 38 38 39 40 43 44 44 44 44 45 45 44 42 41 41 41 41 41 40 40 39 37
27 28 30 30 30 29 29 30 30 30 31 32 32 33 34 34 35 36 36 37 38 39 40 41 43 45 44 45 45 45 44 43 42 42 41 41 42 41 40 40 39 38
26 27 28 28 28 28 28 29 30 31 33 34 33 35 36 36 37 37 37 37 38 40 41 42 44 46 46 46 46 46 44 43 42 41 41 41 41 41 40 39 39 40
24 25 26 26 27 28 29 30 32 34 34 35 34 35 37 38 38 38 38 39 39 40 42 43 45 48 49 48 46 44 43 43 42 40 39 39 40 41 40 39 39 39
23 24 25 27 28 30 32 33 34 35 36 36 36 36 37 37 38 38 40 41 42 43 44 44 46 48 50 52 50 46 43 42 42 40 38 38 39 39 40 39 38 38
Wind_Direction
28 27 26 26 25 23 20 18 17 16 14 11 9 7 5 3 2 2 2 2 2 2 1 359 356 355 353 351 350 348 342 328 302 275 259 251 248 247 247 245 244 244
26 26 25 24 23 21 20 18 17 15 12 10 8 6 4 2 2 2 1 1 1 1 1 0 358 356 356 354 351 349 347 345 339 325 304 282 267 260 257 254 251 248
25 24 23 22 20 19 17 16 15 13 11 9 7 5 3 2 1 1 1 1 0 360 360 359 358 357 357 356 354 352 349 346 343 339 332 322 306 289 276 268 260 253
23 21 20 19 18 17 15 14 13 11 9 6 5 4 2 1 1 0 1 1 359 358 359 358 357 357 356 356 354 352 350 348 346 343 336 331 328 317 299 284 272 264
21 20 17 16 16 15 13 12 10 8 7 4 3 3 1 0 0 359 359 359 358 357 356 357 357 357 356 354 352 351 350 349 348 347 342 334 333 331 321 307 289 277
18 17 15 13 13 12 10 10 8 6 4 2 0 1 360 359 359 358 357 356 356 356 355 355 355 355 355 353 351 350 349 348 348 347 344 339 334 331 330 325 310 292
13 13 12 10 9 9 7 5 5 4 2 359 358 358 358 357 356 356 355 354 354 354 354 353 352 352 352 352 350 349 347 347 347 345 341 339 336 332 330 330 325 315
8 8 7 7 6 5 3 2 1 0 359 357 356 356 355 355 354 353 352 352 351 351 351 351 350 350 349 349 348 347 346 345 344 342 339 337 337 335 333 330 327 324
3 3 3 3 3 1 360 359 357 357 356 354 353 352 351 352 352 351 350 349 348 348 347 347 347 347 346 346 345 344 343 341 339 339 338 335 333 332 332 331 327 323
358 358 357 358 358 357 357 356 354 354 353 351 349 348 348 348 348 348 347 347 346 345 344 343 343 343 342 342 342 341 339 337 336 336 334 333 330 329 328 328 326 322
352 352 352 353 353 352 351 351 351 351 350 349 347 345 343 344 344 344 344 343 343 341 340 339 339 338 338 338 337 337 335 333 333 333 331 329 327 326 325 324 322 319
347 346 346 347 348 348 347 345 345 346 346 346 345 341 340 340 340 340 339 339 339 338 337 336 335 334 333 333 333 332 332 331 331 330 328 326 325 323 322 321 319 316
342 341 340 340 341 341 342 341 341 341 341 342 341 338 335 336 336 335 334 334 334 333 333 332 332 331 330 330 329 329 329 328 327 326 325 323 321 320 319 317 316 314
337 337 335 335 335 335 336 336 336 336 336 337 337 334 331 331 331 330 330 329 329 328 329 328 328 327 327 326 325 325 326 324 323 323 321 320 319 317 316 316 314 312
331 331 331 331 331 332 333 333 332 332 332 333 333 331 329 327 326 326 324 324 324 324 324 324 323 322 322 322 321 321 321 320 319 318 317 316 315 315 314 313 312 311
320 322 323 323 324 325 326 326 327 327 327 328 328 327 326 325 323 322 320 318 319 319 319 319 318 316 316 316 317 318 317 316 315 314 314 313 311 311 311 310 310 309
310 311 312 312 313 314 315 315 316 318 319 320 322 322 321 321 319 318 316 315 313 312 312 313 312 312 312 312 313 314 314 313 312 311 310 309 307 307 307 307 308 307
307 305 305 305 306 306 306 307 307 307 309 311 313 314 314 314 314 312 312 311 309 307 306 307 307 308 308 308 309 310 311 310 309 308 306 305 304 303 302 303 304 305
306 304 302 302 303 303 301 300 299 298 300 303 305 307 307 306 306 306 306 306 305 303 302 302 302 303 304 305 305 306 307 306 304 303 302 301 300 299 299 299 299 300
304 303 302 301 302 302 299 296 294 293 294 297 299 300 300 300 301 301 301 300 299 299 298 298 298 299 300 301 301 302 302 301 300 299 298 297 297 296 295 295 295 295
303 302 301 301 301 299 297 294 292 291 292 294 296 296 295 296 296 296 296 296 295 295 295 294 295 296 296 296 297 299 300 299 297 296 295 294 294 293 292 291 291 292
302 302 300 300 299 297 295 293 291 291 292 294 295 294 293 293 292 292 292 292 292 292 292 291 292 293 293 293 293 295 296 296 294 293 292 291 290 290 289 289 289 288
302 302 299 298 297 295 292 291 290 291 293 296 296 294 293 292 290 289 289 288 288 289 289 289 290 291 290 290 291 291 291 291 290 290 289 288 288 287 287 286 286 285
302 301 299 298 296 294 293 291 292 293 294 295 294 293 292 291 290 288 286 285 285 285 286 286 286 288 288 288 288 288 288 287 286 286 286 286 286 286 284 283 282 283
299 297 296 296 295 294 294 294 294 294 295 295 293 291 290 289 288 287 285 284 284 283 284 284 284 286 287 286 286 285 284 284 283 282 282 283 283 284 283 282 280 280
295 293 293 294 295 295 295 295 295 295 295 295 293 291 289 288 287 286 285 285 285 285 284 283 283 284 285 286 286 283 281 281 281 280 279 279 281 281 281 281 279 278